San Antonio, TX

3:29 AM CST on February 07, 2016 (GMT -0600)
Stinson Municipal

Weather History for KSSF - October, 2012

Change the Weather History Date:

Monday, October 22, 2012

  Actual Average Record
Temperature  
Mean Temperature 80 °F -  
Max Temperature 89 °F 77 °F 91 °F (2004)
Min Temperature 71 °F 58 °F 44 °F (1999)
Cooling Degree Days 15    
Growing Degree Days 30 (Base 50)    
Moisture  
Dew Point 70 °F    
Average Humidity 78    
Maximum Humidity 97    
Minimum Humidity 42    
Precipitation  
Precipitation 0.00 in - - ()
Sea Level Pressure  
Sea Level Pressure 29.91 in    
Wind  
Wind Speed 11 mph (SSE)    
Max Wind Speed 18 mph    
Max Gust Speed 28 mph    
Visibility 10 miles    
Events      
Averages and records for this station are not official NWS values.
T = Trace of Precipitation, MM = Missing Value Source: NWS Daily Summary

Daily Weather History Graph

Daily Weather History Graph

Search for Another Location

Airport or City:

Trip Planner

Search our weather history database for the weather conditions in past years. The results will help you decide how hot, cold, wet, or windy it might be!

Date:

Astronomy

Oct. 22, 2012 Rise Set
Actual Time 7:40 AM CDT 6:55 PM CDT
Civil Twilight 7:15 AM CDT 7:20 PM CDT
Nautical Twilight 6:48 AM CDT 7:47 PM CDT
Astronomical Twilight 6:20 AM CDT 8:15 PM CDT
Moon 2:36 PM CDT (10/22) 12:59 AM CDT (10/22)
Length of Visible Light 12h 04m
Length of Day
11h 15m
First Quarter, 56% of the Moon is Illuminated
Oct 22
First Quarter
Oct 29
Full
Nov 6
Last Quarter
Nov 13
New
Nov 20
First Quarter

Hourly Weather History & Observations

Time (CDT) Temp. Heat Index Dew Point Humidity Pressure Visibility Wind Dir Wind Speed Gust Speed Precip Events Conditions
12:53 AM 73.9 °F - 72.0 °F 93% 29.89 in 9.0 mi SE 13.8 mph - N/A   Mostly Cloudy
1:53 AM 75.0 °F - 72.0 °F 90% 29.88 in 10.0 mi SE 11.5 mph - N/A   Overcast
2:53 AM 75.0 °F - 72.0 °F 90% 29.89 in 10.0 mi SSE 10.4 mph - N/A   Overcast
3:53 AM 75.0 °F - 72.0 °F 90% 29.88 in 10.0 mi SSE 8.1 mph - N/A   Overcast
4:06 AM 75.2 °F - 71.6 °F 89% 29.91 in 10.0 mi South 8.1 mph - N/A   Overcast
4:53 AM 75.0 °F - 72.0 °F 90% 29.88 in 10.0 mi South 8.1 mph - N/A   Mostly Cloudy
5:22 AM 73.4 °F - 71.6 °F 94% 29.92 in 10.0 mi SSE 6.9 mph - N/A   Mostly Cloudy
5:53 AM 73.9 °F - 72.0 °F 93% 29.88 in 10.0 mi SSE 5.8 mph - N/A   Mostly Cloudy
6:53 AM 72.0 °F - 71.1 °F 97% 29.90 in 10.0 mi Calm Calm - N/A   Mostly Cloudy
7:24 AM 71.6 °F - 69.8 °F 94% 29.94 in 10.0 mi SSE 4.6 mph - N/A   Scattered Clouds
7:53 AM 72.0 °F - 70.0 °F 93% 29.91 in 10.0 mi SSE 8.1 mph - N/A   Scattered Clouds
8:04 AM 73.4 °F - 69.8 °F 88% 29.93 in 10.0 mi SE 5.8 mph - N/A   Scattered Clouds
8:51 AM 73.4 °F - 71.6 °F 94% 29.95 in 10.0 mi SSE 12.7 mph 19.6 mph N/A   Mostly Cloudy
8:53 AM 75.0 °F - 71.1 °F 87% 29.92 in 10.0 mi SSE 15.0 mph 19.6 mph N/A   Mostly Cloudy
9:49 AM 77.0 °F - 71.6 °F 83% 29.97 in 10.0 mi SSE 11.5 mph - N/A   Mostly Cloudy
9:53 AM 77.0 °F - 71.1 °F 82% 29.94 in 10.0 mi SSE 11.5 mph - N/A   Mostly Cloudy
10:29 AM 78.8 °F - 69.8 °F 74% 29.98 in 10.0 mi SSE 15.0 mph 20.7 mph N/A   Scattered Clouds
10:53 AM 79.0 °F - 69.1 °F 72% 29.94 in 10.0 mi South 12.7 mph - N/A   Scattered Clouds
11:53 AM 82.0 °F 84.9 °F 68.0 °F 62% 29.95 in 10.0 mi SSE 11.5 mph 18.4 mph N/A   Scattered Clouds
12:53 PM 86.0 °F 87.6 °F 64.9 °F 49% 29.92 in 10.0 mi SSE 15.0 mph 21.9 mph N/A   Clear
1:53 PM 87.1 °F 87.8 °F 63.0 °F 44% 29.89 in 10.0 mi South 15.0 mph 21.9 mph N/A   Clear
2:53 PM 89.1 °F 90.3 °F 64.0 °F 43% 29.85 in 10.0 mi South 11.5 mph - N/A   Scattered Clouds
3:53 PM 89.1 °F 90.0 °F 63.0 °F 42% 29.84 in 10.0 mi SSE 11.5 mph 20.7 mph N/A   Partly Cloudy
4:53 PM 86.0 °F 89.4 °F 68.0 °F 55% 29.84 in 10.0 mi SE 18.4 mph 27.6 mph N/A   Mostly Cloudy
5:53 PM 84.9 °F 88.8 °F 69.1 °F 59% 29.85 in 10.0 mi ESE 13.8 mph - N/A   Partly Cloudy
6:53 PM 82.0 °F 85.5 °F 69.1 °F 65% 29.88 in 10.0 mi ESE 13.8 mph - N/A   Mostly Cloudy
7:53 PM 79.0 °F - 69.1 °F 72% 29.89 in 10.0 mi SE 15.0 mph - N/A   Clear
8:53 PM 77.0 °F - 70.0 °F 79% 29.91 in 10.0 mi ESE 10.4 mph - N/A   Clear
9:28 PM 77.0 °F - 69.8 °F 78% 29.94 in 10.0 mi ESE 11.5 mph - N/A   Mostly Cloudy
9:41 PM 75.2 °F - 69.8 °F 83% 29.95 in 10.0 mi SE 8.1 mph - N/A   Scattered Clouds
9:53 PM 75.9 °F - 70.0 °F 82% 29.92 in 10.0 mi SE 10.4 mph - N/A   Partly Cloudy
10:50 PM 75.2 °F - 69.8 °F 83% 29.96 in 10.0 mi SE 11.5 mph - N/A   Scattered Clouds
10:53 PM 75.0 °F - 70.0 °F 84% 29.93 in 10.0 mi SE 11.5 mph - N/A   Scattered Clouds
11:01 PM 75.2 °F - 69.8 °F 83% 29.96 in 10.0 mi SE 8.1 mph - N/A   Mostly Cloudy